Simultaneous Nadir Overpasses (SNOs) Predictions

Prediction of SNOs between METOP-A and TERRA Satellite Orbit:

Table of predicted SNOs for the next 14.0 days since TLE Epoch: 1/26/2019
Index Date (METOP-A) Time (METOP-A) Lat,Lon (METOP-A) SZA (METOP-A ) Date (TERRA) Time (TERRA) Lat,Lon (TERRA) SZA (TERRA ) Distance(km) Time Diff (sec)
1 01/26/2019 04:06:11 81.44, 168.48 102.81 01/26/2019 04:06:15 81.44, 168.39 102.80 1.59 4
2 01/26/2019 04:56:51 -81.44, -23.92 77.17 01/26/2019 04:55:41 -81.45, -23.74 77.18 3.08 70
3 01/28/2019 23:40:24 81.44,-124.90 102.10 01/28/2019 23:40:28 81.44,-125.08 102.08 2.93 4
4 01/29/2019 00:31:05 -81.44, 42.30 77.93 01/29/2019 00:29:55 -81.44, 42.44 77.95 2.28 70
5 01/31/2019 19:14:39 81.44, -58.69 101.29 01/31/2019 19:14:42 81.44, -58.60 101.30 1.43 3
6 01/31/2019 20:05:19 -81.44, 108.92 78.69 01/31/2019 20:04:09 -81.44, 108.94 78.72 0.46 70
7 02/03/2019 14:48:53 81.44, 7.91 100.50 02/03/2019 14:48:56 81.44, 7.81 100.49 1.67 3
8 02/03/2019 15:39:33 -81.44, 175.52 79.49 02/03/2019 15:38:23 -81.44, 175.39 79.54 2.18 70
9 02/06/2019 10:23:07 81.44, 74.10 99.62 02/06/2019 10:23:09 81.44, 74.16 99.62 1.17 2




NCC Satellite Simultaneous Nadir Overpasses (SNOs) Prediction Service
